Terminal Aerodrome Forecast
Issued by NWS

Home | Current Version | Previous Version | Text Only | Print | Product List | Glossary On
Versions: 1 2 3 4 5 6 7 8 9 10 11 12 13 14 15 16 17 18 19 20
000
FTUS43 KDLH 291100
TAFHYR
TAF
KHYR 291138Z 2912/3012 15006KT 6SM -SHRA BR OVC006
      TEMPO 2912/2916 3SM TSRA BR OVC004CB
     FM291600 18004KT 6SM BR VCSH OVC008
     FM291900 19005KT P6SM VCTS BKN015CB BKN050
     FM292100 VRB03KT 6SM TSRA BR BKN025CB
     FM300100 VRB03KT 4SM -RA BR VCTS OVC015CB
     FM300600 00000KT 1SM BR OVC005=

USA.gov is the U.S. government's official web portal to all federal, state and local government web resources and services.